Location: C.E.K. Mees Observatory
(42.7003°N, 77.4088°W)
Time: 15:49:21
(UTC-05:00)

Tiangong 2 - Pass Details

Date: 13 October 2017
Orbit: 386 x 390 km, 42.8° (Epoch: 16 December)

Event Time Altitude Azimuth Distance (km) Brightness Sun altitude
Exits shadow 05:52:29 53° 259° (W) 483 1.1 -17.0°
Maximum altitude 05:53:09 87° 171° (S) 395 1.0 -16.9°
Drops below altitude 10° 05:56:21 10° 84° (E) 1,424 5.3 -16.3°
Sets 05:58:26 0° 84° (E) 2,281 6.9 -15.9°
